TimeEST,TemperatureF,Dew PointF,Humidity,Sea Level PressureIn,VisibilityMPH,Wind Direction,Wind SpeedMPH,Gust SpeedMPH,PrecipitationIn,Events,Conditions,WindDirDegrees,DateUTC
12:15 AM,12.0,1.4,62,30.21,10.0,SE,4.6,-,N/A,,Clear,130,2013-02-11 05:15:00
12:35 AM,12.0,1.2,62,30.20,10.0,SE,5.8,-,N/A,,Clear,130,2013-02-11 05:35:00
12:55 AM,12.0,1.4,62,30.18,10.0,SE,4.6,-,N/A,,Clear,140,2013-02-11 05:55:00
1:15 AM,12.0,1.0,61,30.16,10.0,ESE,5.8,-,N/A,,Clear,120,2013-02-11 06:15:00
1:35 AM,14.2,1.9,58,30.16,10.0,SE,5.8,-,N/A,,Clear,130,2013-02-11 06:35:00
1:55 AM,14.5,2.3,58,30.15,10.0,SE,5.8,-,N/A,,Clear,130,2013-02-11 06:55:00
2:15 AM,14.0,1.9,59,30.13,10.0,SSE,4.6,-,N/A,,Clear,150,2013-02-11 07:15:00
2:35 AM,14.5,2.1,58,30.12,10.0,SE,5.8,-,N/A,,Clear,140,2013-02-11 07:35:00
2:55 AM,16.9,3.9,57,30.10,10.0,SE,6.9,-,N/A,,Clear,140,2013-02-11 07:55:00
3:15 AM,17.1,3.6,56,30.09,10.0,SE,5.8,-,N/A,,Mostly Cloudy,130,2013-02-11 08:15:00
3:35 AM,17.8,4.6,57,30.07,10.0,SE,4.6,-,N/A,,Scattered Clouds,140,2013-02-11 08:35:00
4:15 AM,18.3,5.2,57,30.04,10.0,SE,5.8,-,N/A,,Scattered Clouds,130,2013-02-11 09:15:00
4:35 AM,19.8,4.8,52,30.02,10.0,ESE,3.5,-,N/A,,Mostly Cloudy,110,2013-02-11 09:35:00
4:55 AM,20.8,5.4,51,30.01,10.0,SE,5.8,-,N/A,,Mostly Cloudy,130,2013-02-11 09:55:00
5:15 AM,20.5,5.5,53,30.00,10.0,Calm,Calm,-,N/A,,Scattered Clouds,0,2013-02-11 10:15:00
5:35 AM,20.5,6.8,56,29.99,10.0,ESE,3.5,-,N/A,,Scattered Clouds,120,2013-02-11 10:35:00
5:55 AM,23.7,7.0,49,29.98,10.0,South,4.6,-,N/A,,Mostly Cloudy,170,2013-02-11 10:55:00
6:15 AM,27.7,3.4,35,29.97,10.0,South,6.9,-,N/A,,Mostly Cloudy,170,2013-02-11 11:15:00
6:35 AM,29.7,3.7,33,29.95,10.0,South,8.1,-,N/A,,Overcast,170,2013-02-11 11:35:00
6:55 AM,32.0,4.6,32,29.94,10.0,SSE,10.4,16.1,N/A,,Overcast,160,2013-02-11 11:55:00
7:15 AM,32.0,3.7,30,29.93,10.0,South,9.2,16.1,N/A,,Overcast,170,2013-02-11 12:15:00
7:35 AM,32.0,4.1,31,29.92,10.0,South,12.7,19.6,N/A,,Overcast,170,2013-02-11 12:35:00
7:55 AM,32.0,5.0,32,29.91,10.0,South,12.7,23.0,N/A,,Overcast,170,2013-02-11 12:55:00
8:15 AM,32.9,6.1,32,29.90,10.0,South,8.1,19.6,N/A,,Mostly Cloudy,170,2013-02-11 13:15:00
8:35 AM,33.4,7.3,34,29.88,10.0,South,9.2,-,N/A,,Overcast,180,2013-02-11 13:35:00
8:55 AM,34.0,7.7,33,29.87,10.0,South,5.8,-,N/A,,Overcast,190,2013-02-11 13:55:00
9:15 AM,34.0,8.8,35,29.85,10.0,SSE,17.3,24.2,N/A,,Overcast,160,2013-02-11 14:15:00
9:35 AM,34.3,10.4,37,29.84,10.0,South,20.7,32.2,N/A,,Overcast,170,2013-02-11 14:35:00
9:55 AM,34.3,15.6,46,29.82,7.0,South,19.6,29.9,N/A,Snow,Light Snow,170,2013-02-11 14:55:00
10:15 AM,34.3,18.9,53,29.81,10.0,South,17.3,26.5,N/A,,Overcast,180,2013-02-11 15:15:00
10:35 AM,34.3,23.5,65,29.80,10.0,South,19.6,32.2,N/A,,Overcast,170,2013-02-11 15:35:00
10:55 AM,34.3,26.4,73,29.80,4.0,South,16.1,29.9,N/A,Snow,Light Snow,190,2013-02-11 15:55:00
11:15 AM,34.3,28.0,78,29.80,4.0,South,17.3,25.3,N/A,Snow,Light Snow,170,2013-02-11 16:15:00
11:35 AM,32.0,28.2,86,29.78,1.2,South,12.7,19.6,N/A,Snow,Light Snow,180,2013-02-11 16:35:00
11:55 AM,34.3,29.8,84,29.77,10.0,South,13.8,20.7,N/A,,Overcast,180,2013-02-11 16:55:00
12:15 PM,34.3,28.6,79,29.75,10.0,South,16.1,24.2,N/A,,Overcast,190,2013-02-11 17:15:00
12:35 PM,36.7,30.0,77,29.73,10.0,South,12.7,27.6,N/A,,Overcast,180,2013-02-11 17:35:00
12:55 PM,36.9,29.3,74,29.71,10.0,South,13.8,23.0,N/A,,Overcast,190,2013-02-11 17:55:00
1:15 PM,36.9,29.3,74,29.70,10.0,South,12.7,24.2,N/A,,Overcast,180,2013-02-11 18:15:00
1:35 PM,36.9,29.3,74,29.69,10.0,South,15.0,25.3,N/A,,Overcast,180,2013-02-11 18:35:00
1:55 PM,36.9,30.0,76,29.67,10.0,South,11.5,19.6,N/A,,Overcast,190,2013-02-11 18:55:00
2:15 PM,36.9,30.2,77,29.66,10.0,South,11.5,21.9,N/A,,Overcast,180,2013-02-11 19:15:00
2:35 PM,36.9,30.6,78,29.64,10.0,South,8.1,20.7,N/A,,Overcast,170,2013-02-11 19:35:00
2:55 PM,38.3,31.1,75,29.64,10.0,South,9.2,24.2,N/A,,Overcast,190,2013-02-11 19:55:00
3:15 PM,37.4,31.1,78,29.64,10.0,South,8.1,-,N/A,,Overcast,190,2013-02-11 20:15:00
3:35 PM,37.4,31.5,79,29.62,10.0,South,12.7,19.6,N/A,,Overcast,170,2013-02-11 20:35:00
3:55 PM,38.1,31.8,78,29.62,10.0,South,12.7,18.4,N/A,,Overcast,180,2013-02-11 20:55:00
4:15 PM,37.6,31.8,80,29.61,10.0,South,11.5,16.1,N/A,,Overcast,170,2013-02-11 21:15:00
4:35 PM,37.9,32.0,79,29.60,10.0,South,10.4,17.3,N/A,,Overcast,180,2013-02-11 21:35:00
4:55 PM,38.3,32.0,78,29.58,10.0,South,11.5,-,N/A,,Overcast,170,2013-02-11 21:55:00
6:15 PM,36.9,32.0,83,29.58,10.0,South,6.9,-,N/A,,Overcast,190,2013-02-11 23:15:00
6:35 PM,36.9,32.4,84,29.59,10.0,SSW,8.1,-,N/A,,Overcast,200,2013-02-11 23:35:00
6:55 PM,36.9,32.9,86,29.58,10.0,SSW,8.1,17.3,N/A,,Overcast,200,2013-02-11 23:55:00
7:15 PM,36.9,32.9,86,29.59,10.0,SSW,8.1,-,N/A,,Overcast,200,2013-02-12 00:15:00
7:35 PM,36.9,33.4,87,29.59,7.0,South,5.8,-,N/A,,Overcast,190,2013-02-12 00:35:00
8:15 PM,35.6,33.1,91,29.59,5.0,SSW,4.6,-,N/A,,Overcast,200,2013-02-12 01:15:00
8:35 PM,34.7,32.4,91,29.60,5.0,South,4.6,-,N/A,,Overcast,190,2013-02-12 01:35:00
8:55 PM,34.3,32.4,92,29.57,5.0,SSE,8.1,-,N/A,,Overcast,150,2013-02-12 01:55:00
9:15 PM,34.3,32.9,94,29.57,7.0,South,5.8,-,N/A,,Overcast,190,2013-02-12 02:15:00
9:35 PM,34.7,33.1,94,29.57,10.0,SSW,6.9,-,N/A,,Overcast,210,2013-02-12 02:35:00
9:55 PM,34.9,32.7,92,29.59,10.0,SW,8.1,-,N/A,,Overcast,220,2013-02-12 02:55:00
10:15 PM,36.5,32.0,84,29.59,10.0,SSW,10.4,21.9,N/A,,Overcast,210,2013-02-12 03:15:00
10:35 PM,36.9,30.4,77,29.59,10.0,SSW,8.1,17.3,N/A,,Overcast,210,2013-02-12 03:35:00
10:55 PM,36.9,29.3,74,29.59,10.0,SW,8.1,17.3,N/A,,Overcast,230,2013-02-12 03:55:00
11:15 PM,36.9,29.1,74,29.59,10.0,WSW,6.9,-,N/A,,Overcast,240,2013-02-12 04:15:00
11:35 PM,36.5,28.8,74,29.59,10.0,West,4.6,-,N/A,,Overcast,270,2013-02-12 04:35:00
11:55 PM,34.9,27.3,74,29.58,10.0,SW,5.8,-,N/A,,Overcast,230,2013-02-12 04:55:00